When you browse on this site, cookies collect data to enhance your experience and personalize the content and advertising you see.
Visit our Privacy Policy to learn more. By continuing to use the site, you agree to this use of cookies and data.

Hourly Weather Annaba

Today, 15 July, Wednesday

Time Temperature Precipitation Wind Pressure Humidity
00:00 +25°C° 0.1 mm 1 mps 759 mmHg 78%
01:00 +24°C° 0.1 mm 1 mps 758 mmHg 80%
02:00 +24°C° 0.2 mm 1 mps 758 mmHg 81%
03:00 +24°C° 0.2 mm 1 mps 758 mmHg 82%
04:00 +24°C° 0.2 mm 1 mps 758 mmHg 82%
05:00 +24°C° 0.4 mm 1 mps 758 mmHg 81%
06:00 +24°C° 0.4 mm 1 mps 759 mmHg 80%
07:00 +25°C° 0.4 mm 1 mps 759 mmHg 78%
08:00 +26°C° 0.3 mm 1 mps 759 mmHg 72%
09:00 +27°C° 0.3 mm 1 mps 759 mmHg 65%
10:00 +29°C° 0.3 mm 1 mps 759 mmHg 59%
11:00 +30°C° 0.2 mm 2 mps 759 mmHg 57%
12:00 +30°C° 0.2 mm 3 mps 759 mmHg 55%
13:00 +32°C° 0.2 mm 4 mps 759 mmHg 54%
14:00 +32°C° 0.1 mm 4 mps 759 mmHg 53%
15:00 +32°C° 0.1 mm 4 mps 759 mmHg 52%
16:00 +30°C° 0.1 mm 4 mps 758 mmHg 51%
17:00 +29°C° 0 mm 3 mps 759 mmHg 52%
18:00 +29°C° 0 mm 3 mps 759 mmHg 53%
19:00 +28°C° 0 mm 3 mps 759 mmHg 54%
20:00 +27°C° 0 mm 2 mps 760 mmHg 58%
21:00 +26°C° 0 mm 1 mps 761 mmHg 62%
22:00 +25°C° 0 mm 1 mps 761 mmHg 66%
23:00 +25°C° 0 mm 1 mps 761 mmHg 67%

Tomorrow, 16 July, Thursday

Time Temperature Precipitation Wind Pressure Humidity
00:00 +22°C° 0 mm 0 mps 761 mmHg 67%
01:00 +22°C° 0 mm 0 mps 760 mmHg 68%
02:00 +24°C° 0 mm 1 mps 760 mmHg 69%
03:00 +24°C° 0 mm 1 mps 760 mmHg 71%
04:00 +23°C° 0 mm 1 mps 760 mmHg 72%
05:00 +24°C° 0 mm 1 mps 760 mmHg 70%
06:00 +25°C° 0 mm 1 mps 760 mmHg 68%
07:00 +26°C° 0 mm 1 mps 760 mmHg 65%
08:00 +27°C° 0 mm 1 mps 761 mmHg 61%
09:00 +28°C° 0 mm 2 mps 761 mmHg 56%
10:00 +30°C° 0 mm 2 mps 761 mmHg 51%
11:00 +30°C° 0 mm 3 mps 761 mmHg 50%
12:00 +30°C° 0 mm 4 mps 761 mmHg 49%
13:00 +32°C° 0 mm 4 mps 760 mmHg 48%
14:00 +32°C° 0 mm 4 mps 760 mmHg 49%
15:00 +30°C° 0 mm 4 mps 760 mmHg 50%
16:00 +30°C° 0 mm 5 mps 759 mmHg 51%
17:00 +29°C° 0 mm 4 mps 760 mmHg 55%
18:00 +28°C° 0 mm 4 mps 760 mmHg 58%
19:00 +27°C° 0 mm 3 mps 760 mmHg 61%
20:00 +26°C° 0 mm 3 mps 760 mmHg 65%
21:00 +25°C° 0 mm 2 mps 760 mmHg 70%
22:00 +24°C° 0 mm 1 mps 761 mmHg 74%
23:00 +24°C° 0 mm 1 mps 760 mmHg 75%

Day after tomorrow, 17 July, Friday

Time Temperature Precipitation Wind Pressure Humidity
00:00 +24°C° 0 mm 1 mps 760 mmHg 76%
01:00 +23°C° 0 mm 1 mps 760 mmHg 78%
02:00 +23°C° 0 mm 1 mps 760 mmHg 79%
03:00 +23°C° 0 mm 1 mps 759 mmHg 80%
04:00 +23°C° 0 mm 1 mps 759 mmHg 81%
05:00 +23°C° 0 mm 2 mps 759 mmHg 77%
06:00 +24°C° 0 mm 2 mps 759 mmHg 74%
07:00 +25°C° 0 mm 2 mps 759 mmHg 71%
08:00 +26°C° 0 mm 2 mps 759 mmHg 65%
09:00 +27°C° 0 mm 3 mps 759 mmHg 59%
10:00 +28°C° 0 mm 3 mps 759 mmHg 53%
11:00 +29°C° 0 mm 4 mps 759 mmHg 51%
12:00 +30°C° 0 mm 4 mps 759 mmHg 49%
13:00 +30°C° 0 mm 5 mps 759 mmHg 47%
14:00 +30°C° 0 mm 5 mps 759 mmHg 49%
15:00 +30°C° 0 mm 5 mps 758 mmHg 50%
16:00 +30°C° 0 mm 5 mps 758 mmHg 51%
17:00 +29°C° 0 mm 5 mps 758 mmHg 55%
18:00 +28°C° 0 mm 4 mps 758 mmHg 59%
19:00 +27°C° 0 mm 4 mps 758 mmHg 63%
20:00 +26°C° 0 mm 3 mps 759 mmHg 68%
21:00 +25°C° 0 mm 3 mps 759 mmHg 73%
22:00 +24°C° 0 mm 2 mps 759 mmHg 78%
23:00 +24°C° 0 mm 3 mps 759 mmHg 79%

18 July, Saturday

Time Temperature Precipitation Wind Pressure Humidity
00:00 +24°C° 0 mm 3 mps 759 mmHg 80%
01:00 +22°C° 0 mm 3 mps 759 mmHg 81%
02:00 +22°C° 0 mm 3 mps 759 mmHg 82%
03:00 +22°C° 0 mm 3 mps 758 mmHg 82%
04:00 +22°C° 0 mm 3 mps 758 mmHg 83%
05:00 +23°C° 0 mm 4 mps 758 mmHg 79%
06:00 +23°C° 0 mm 4 mps 759 mmHg 75%
07:00 +25°C° 0 mm 5 mps 759 mmHg 71%
08:00 +26°C° 0.1 mm 5 mps 759 mmHg 66%
09:00 +28°C° 0.1 mm 5 mps 759 mmHg 61%
10:00 +29°C° 0.1 mm 6 mps 759 mmHg 57%
11:00 +29°C° 0 mm 6 mps 759 mmHg 55%
12:00 +30°C° 0 mm 6 mps 759 mmHg 53%
13:00 +30°C° 0 mm 7 mps 759 mmHg 51%
14:00 +30°C° 0 mm 7 mps 759 mmHg 51%
15:00 +30°C° 0 mm 7 mps 759 mmHg 52%
16:00 +30°C° 0 mm 6 mps 758 mmHg 52%
17:00 +29°C° 0 mm 6 mps 758 mmHg 55%
18:00 +28°C° 0 mm 6 mps 759 mmHg 58%
19:00 +27°C° 0 mm 5 mps 759 mmHg 61%
20:00 +26°C° 0 mm 4 mps 759 mmHg 66%
21:00 +25°C° 0 mm 4 mps 759 mmHg 71%
22:00 +24°C° 0 mm 3 mps 760 mmHg 76%
23:00 +24°C° 0 mm 3 mps 760 mmHg 77%

19 July, Sunday

Time Temperature Precipitation Wind Pressure Humidity
00:00 +24°C° 0 mm 3 mps 760 mmHg 79%
01:00 +22°C° 0 mm 3 mps 759 mmHg 80%
02:00 +22°C° 0 mm 3 mps 759 mmHg 81%
03:00 +22°C° 0 mm 3 mps 759 mmHg 81%
04:00 +22°C° 0 mm 3 mps 759 mmHg 82%
05:00 +22°C° 0 mm 3 mps 759 mmHg 78%
06:00 +24°C° 0 mm 3 mps 759 mmHg 75%
07:00 +25°C° 0 mm 3 mps 759 mmHg 72%
08:00 +26°C° 0 mm 3 mps 760 mmHg 65%
09:00 +28°C° 0 mm 3 mps 760 mmHg 58%
10:00 +29°C° 0 mm 3 mps 760 mmHg 50%
11:00 +30°C° 0 mm 4 mps 760 mmHg 49%
12:00 +32°C° 0 mm 4 mps 760 mmHg 47%
13:00 +32°C° 0 mm 4 mps 760 mmHg 46%
14:00 +32°C° 0 mm 4 mps 760 mmHg 47%
15:00 +32°C° 0 mm 4 mps 759 mmHg 48%
16:00 +32°C° 0 mm 4 mps 759 mmHg 49%
17:00 +30°C° 0 mm 3 mps 759 mmHg 53%
18:00 +28°C° 0 mm 2 mps 760 mmHg 57%
19:00 +27°C° 0 mm 2 mps 760 mmHg 61%
20:00 +26°C° 0 mm 1 mps 760 mmHg 67%
21:00 +25°C° 0 mm 1 mps 760 mmHg 72%
22:00 +24°C° 0 mm 1 mps 761 mmHg 78%
23:00 +22°C° 0 mm 0 mps 761 mmHg 79%

20 July, Monday

Time Temperature Precipitation Wind Pressure Humidity
00:00 +21°C° 0 mm 0 mps 760 mmHg 80%
01:00 +21°C° 0 mm 0 mps 760 mmHg 81%
02:00 +21°C° 0 mm 0 mps 760 mmHg 82%
03:00 +22°C° 0 mm 1 mps 760 mmHg 82%
04:00 +22°C° 0 mm 1 mps 760 mmHg 82%
05:00 +23°C° 0 mm 1 mps 760 mmHg 78%
06:00 +24°C° 0 mm 1 mps 760 mmHg 74%
07:00 +25°C° 0 mm 1 mps 760 mmHg 70%
08:00 +27°C° 0 mm 1 mps 760 mmHg 62%
09:00 +29°C° 0 mm 1 mps 761 mmHg 54%
10:00 +31°C° 0 mm 2 mps 761 mmHg 46%
11:00 +32°C° 0 mm 2 mps 761 mmHg 44%
12:00 +33°C° 0 mm 3 mps 760 mmHg 42%
13:00 +34°C° 0 mm 4 mps 760 mmHg 40%
14:00 +34°C° 0 mm 4 mps 760 mmHg 41%
15:00 +34°C° 0 mm 4 mps 759 mmHg 41%
16:00 +33°C° 0 mm 4 mps 759 mmHg 42%
17:00 +32°C° 0 mm 4 mps 759 mmHg 47%
18:00 +30°C° 0 mm 4 mps 760 mmHg 52%
19:00 +29°C° 0 mm 3 mps 760 mmHg 57%
20:00 +27°C° 0 mm 3 mps 760 mmHg 64%
21:00 +26°C° 0 mm 2 mps 760 mmHg 70%
22:00 +24°C° 0 mm 2 mps 761 mmHg 77%
23:00 +24°C° 0 mm 1 mps 761 mmHg 76%
Show more